カタログに戻る

STARLINK-36297

運用中通信SSO
NORAD 67671·PAYLOAD·🇺🇸 United States

打ち上げ Feb 2, 2026 から Vandenberg Space Force Base

Loading…

次のパス (今後24時間)

TLE

最新Source: CelesTrak SupGP

元期: Sep 14, 2026, 23:14 UTC

1 67671C 26022Z   26257.96854167  .00034247  00000+0  10632-2 0  2577
2 67671  97.2845 289.6785 0001084  98.3106 263.9428 15.33418926    16

AllMySatでSTARLINK-36297をリアルタイム追跡

Download on the App Store